[[{"header":{"parameterUnit":"m.s-1","parameterCategory":2,"la1":30.2991,"la2":30.254,"lo1":-89.0895,"lo2":-89.0444,"dy":0.0017,"dx":0.0017,"nx":28,"ny":28,"refTime":"2025-01-13T09:00:00:Z","depth":"0","parameterNumber":2,"parameterNumberName":"U-component_of_CURRENTS"},"data":[0,0,0,0,0,0,0,0,0,0,0,0,0,0,0,0,0,0,0,0,0,0,0,0,0,0,0,0,0,0,0,0,0,0,0,0,0,0,0,0,0,0,0,0,0,0,0,0,0,0,0,0,0,0,0,0,0,0,-0.268,-0.2681,0,-0.27,-0.27,-0.27,-0.2657,-0.2656,-0.2654,-0.2653,-0.2619,-0.2619,-0.262,0,0,0,0,0,0,0,0,0,0,0,0,0,-0.2601,-0.2603,-0.268,-0.2681,-0.2681,-0.27,-0.27,-0.27,-0.2657,-0.2656,-0.2654,-0.2653,-0.2619,-0.2619,-0.262,0,0,0,0,0,0,0,0,0,0,0,0,0,-0.2628,-0.2603,-0.268,-0.2663,-0.2662,-0.27,-0.27,-0.27,-0.2657,-0.2656,-0.2654,-0.2652,-0.2619,-0.2619,-0.262,-0.2659,0,0,-0.2621,-0.2621,0,0,0,0,0,0,0,0,-0.2626,-0.2631,-0.2665,-0.2664,-0.2663,-0.2676,-0.266,-0.2684,-0.2658,-0.2657,-0.2653,-0.2651,-0.2636,-0.2635,-0.264,-0.2657,-0.2656,-0.2621,-0.2621,-0.2621,-0.2621,0,0,0,0,0,0,0,-0.2625,-0.2629,-0.2686,-0.2666,-0.2665,-0.2654,-0.2655,-0.2665,-0.2654,-0.2657,-0.2654,-0.266,-0.2634,-0.264,-0.2639,-0.2655,-0.2621,-0.2621,-0.2621,-0.2621,-0.2675,-0.2676,0,0,0,0,0,0,-0.2629,-0.2628,-0.2686,-0.2687,-0.2642,-0.2657,-0.2658,-0.2672,-0.2655,-0.2652,-0.2662,-0.2658,-0.2641,-0.2639,-0.2638,-0.266,-0.2621,-0.2621,-0.2622,-0.2674,-0.2675,-0.2677,0,0,0,0,0,0,-0.2627,-0.2634,-0.2685,-0.2659,-0.2664,-0.266,-0.2676,-0.2674,-0.2672,-0.266,-0.2654,-0.2662,-0.2639,-0.2637,-0.2644,-0.2659,-0.2622,-0.2622,-0.2672,-0.2674,-0.2676,-0.272,0,0,0,0,0,0,-0.2625,-0.2634,-0.2642,-0.2659,-0.2666,-0.2707,-0.2678,-0.2675,-0.268,-0.2675,-0.2658,-0.2654,-0.2638,-0.2644,-0.2645,-0.2659,-0.2622,-0.2671,-0.2673,-0.2675,-0.2717,-0.2723,-0.2728,0,0,0,0,0,-0.2622,-0.2643,-0.2642,-0.2649,-0.2679,-0.2708,-0.2711,-0.2699,-0.2682,-0.2689,-0.2676,-0.2654,-0.2658,-0.2646,-0.2646,-0.2661,-0.267,-0.2672,-0.2675,-0.2714,-0.2722,-0.2728,0,0,0,0,0,0,-0.2615,-0.2642,-0.264,-0.2669,-0.2687,-0.2701,-0.2708,-0.2705,-0.2703,-0.2693,-0.2673,-0.2669,-0.2681,-0.2671,-0.2657,-0.2684,-0.266,-0.2663,-0.2689,-0.2696,-0.2702,-0.2699,-0.2623,0,0,0,0,0,-0.262,-0.2636,-0.2664,-0.2683,-0.2695,-0.2703,-0.2711,-0.2709,-0.2714,-0.271,-0.27,-0.2692,-0.2698,-0.2694,-0.2697,-0.2716,-0.27,-0.2725,-0.2731,-0.2736,-0.2735,-0.2738,-0.2743,-0.2685,-0.2685,-0.2685,0,0,-0.262,-0.2638,-0.2646,-0.2682,-0.2692,-0.2718,-0.2702,-0.2722,-0.2738,-0.2709,-0.2719,-0.2715,-0.2709,-0.2725,-0.2729,-0.2714,-0.2744,-0.2739,-0.2743,-0.2739,-0.2741,-0.2746,-0.2751,-0.2687,-0.2687,-0.2687,0,0,-0.263,-0.2649,-0.2664,-0.2688,-0.2713,-0.2727,-0.2734,-0.2754,-0.2754,-0.2776,-0.2757,-0.2761,-0.2768,-0.2766,-0.2766,-0.2809,-0.2777,-0.2809,-0.283,-0.2834,-0.2838,-0.2842,-0.2824,-0.2826,-0.2807,-0.2808,-0.2808,0,-0.2625,-0.2654,-0.2674,-0.27,-0.2719,-0.2732,-0.2758,-0.2774,-0.279,-0.2798,-0.2781,-0.28,-0.2789,-0.2813,-0.2819,-0.2821,-0.2808,-0.2803,-0.284,-0.2843,-0.2846,-0.2827,-0.2829,-0.281,-0.281,-0.2809,-0.2809,0,-0.2647,-0.2674,-0.2689,-0.2725,-0.2752,-0.2777,-0.2809,-0.2829,-0.2832,-0.2841,-0.2864,-0.2859,-0.2863,-0.2867,-0.2852,-0.2875,-0.2854,-0.2849,-0.282,-0.2855,-0.2832,-0.2833,-0.2813,-0.2813,-0.2812,-0.2811,0,0,-0.2614,-0.2687,-0.2689,-0.271,-0.2766,-0.2787,-0.2832,-0.2869,-0.2886,-0.2904,-0.2921,-0.2936,-0.2925,-0.2924,-0.2913,-0.2914,-0.2918,-0.2887,-0.2886,-0.2863,-0.2909,-0.2841,-0.2835,-0.2918,-0.2919,-0.2919,-0.2882,0,-0.2616,-0.2664,-0.2707,-0.2751,-0.2777,-0.2822,-0.2858,-0.2896,-0.2919,-0.294,-0.295,-0.2959,-0.2951,-0.2944,-0.295,-0.2926,-0.2923,-0.2927,-0.2883,-0.2881,-0.2813,-0.2835,-0.2724,-0.2677,-0.2882,-0.2883,-0.2883,0,-0.2609,-0.2645,-0.2688,-0.2759,-0.2774,-0.2803,-0.2858,-0.2896,-0.2945,-0.2963,-0.2989,-0.2989,-0.3,-0.298,-0.2972,-0.2974,-0.2943,-0.2925,-0.2923,-0.2844,-0.2815,-0.2677,-0.267,-0.2645,-0.2883,-0.2883,-0.2883,0,-0.2549,-0.2628,-0.2657,-0.2682,-0.2765,-0.2788,-0.2828,-0.2887,-0.2921,-0.2967,-0.2988,-0.301,-0.3012,-0.2997,-0.2967,-0.2964,-0.2946,-0.2936,-0.2851,-0.2845,-0.2733,-0.2716,-0.2689,-0.2927,-0.2927,-0.2927,-0.2928,0,-0.2524,-0.2544,-0.2627,-0.2639,-0.2672,-0.2745,-0.2781,-0.2831,-0.2897,-0.2926,-0.2982,-0.2999,-0.3015,-0.3011,-0.2976,-0.2914,-0.2956,-0.2852,-0.2834,-0.2744,-0.273,-0.2688,-0.2703,-0.2926,-0.2926,-0.2927,-0.2927,0,-0.2442,-0.2502,-0.2537,-0.2619,-0.2641,-0.2658,-0.2749,-0.2773,-0.2856,-0.2897,-0.291,-0.2988,-0.2981,-0.2989,-0.2959,-0.2916,-0.2808,-0.2834,-0.2718,-0.2687,-0.2562,-0.2584,-0.2516,-0.2443,-0.2719,-0.2717,-0.2716,0,-0.2401,-0.241,-0.2493,-0.2505,-0.2535,-0.2582,-0.2609,-0.2721,-0.2758,-0.2874,-0.2878,-0.292,-0.2922,-0.288,-0.2818,-0.2751,-0.2735,-0.2601,-0.2574,-0.2537,-0.2549,-0.2554,-0.2498,-0.2441,-0.2437,-0.2434,-0.2432,0,-0.2308,-0.2338,-0.2363,-0.2394,-0.242,-0.2468,-0.2522,-0.2556,-0.268,-0.2728,-0.278,-0.2797,-0.2798,-0.2697,-0.2638,-0.2574,-0.2523,-0.2534,-0.253,-0.2355,-0.2324,-0.225,-0.2482,-0.2405,-0.2407,-0.2409,-0.2411,-0.2412,-0.2218,-0.2213,-0.2243,-0.2258,-0.2292,-0.2317,-0.2309,-0.2391,-0.2435,-0.2483,-0.2597,-0.2601,-0.2573,-0.2476,-0.2418,-0.2281,-0.2334,-0.2198,-0.2233,-0.2247,-0.2157,-0.2321,-0.2208,-0.2209,-0.221,-0.2211,-0.2212,0,-0.2093,-0.2098,-0.2104,-0.2117,-0.2094,-0.2167,-0.2211,-0.2182,-0.2178,-0.2282,-0.2312,-0.2339,-0.2234,-0.2223,-0.2115,-0.2014,-0.1958,-0.1962,-0.195,-0.191,-0.2071,-0.2039,-0.1842,-0.1843,-0.1843,-0.1843,-0.1843,-0.1843,-0.2026,-0.1981,-0.1985,-0.1903,-0.1908,-0.1838,-0.1832,-0.1821,-0.1863,-0.1885,-0.196,-0.2073,-0.2086,-0.2143,-0.1996,-0.1889,-0.1831,-0.1769,-0.1799,-0.1934,-0.196,-0.1984,-0.1956,-0.1746,-0.1746,-0.1555,-0.1553,-0.1553]},{"header":{"parameterUnit":"m.s-1","parameterCategory":2,"la1":30.2991,"la2":30.254,"lo1":-89.0895,"lo2":-89.0444,"dy":0.0017,"dx":0.0017,"nx":28,"ny":28,"refTime":"2025-01-13T09:00:00:Z","depth":"0","parameterNumber":3,"parameterNumberName":"V-component_of_CURRENTS"},"data":[0,0,0,0,0,0,0,0,0,0,0,0,0,0,0,0,0,0,0,0,0,0,0,0,0,0,0,0,0,0,0,0,0,0,0,0,0,0,0,0,0,0,0,0,0,0,0,0,0,0,0,0,0,0,0,0,0,0,-0.0443,-0.0442,0,-0.0339,-0.0338,-0.0336,-0.0268,-0.0268,-0.0268,-0.0268,-0.0146,-0.0143,-0.014,0,0,0,0,0,0,0,0,0,0,0,0,0,-0.0516,-0.0515,-0.0443,-0.0442,-0.0441,-0.0339,-0.0338,-0.0336,-0.0269,-0.0268,-0.0268,-0.0267,-0.0147,-0.0143,-0.014,0,0,0,0,0,0,0,0,0,0,0,0,0,-0.0454,-0.0515,-0.0443,-0.0396,-0.0391,-0.034,-0.0338,-0.0336,-0.0269,-0.0268,-0.0268,-0.0267,-0.0148,-0.0144,-0.0139,-0.012,0,0,-0.0125,-0.0124,0,0,0,0,0,0,0,0,-0.0458,-0.0451,-0.0404,-0.0399,-0.0393,-0.0318,-0.0319,-0.0263,-0.0269,-0.0313,-0.0268,-0.0267,-0.0203,-0.0194,-0.0173,-0.0114,-0.0109,-0.0125,-0.0122,-0.012,-0.0119,0,0,0,0,0,0,0,-0.0462,-0.0455,-0.04,-0.0403,-0.0396,-0.0357,-0.0349,-0.0308,-0.026,-0.0309,-0.0304,-0.0296,-0.02,-0.0178,-0.017,-0.0107,-0.0125,-0.0121,-0.0118,-0.0117,-0.0017,-0.0017,0,0,0,0,0,0,-0.0482,-0.046,-0.0403,-0.0397,-0.0427,-0.0357,-0.0347,-0.0341,-0.0261,-0.0249,-0.0296,-0.0293,-0.0186,-0.0175,-0.0165,-0.0139,-0.0121,-0.0116,-0.0114,-0.0017,-0.0017,-0.0017,0,0,0,0,0,0,-0.0484,-0.0479,-0.0408,-0.0427,-0.0415,-0.0357,-0.035,-0.0339,-0.0317,-0.0251,-0.0239,-0.0286,-0.0185,-0.0172,-0.0131,-0.0133,-0.0114,-0.011,-0.0017,-0.0017,-0.0017,-0.0085,0,0,0,0,0,0,-0.0487,-0.048,-0.0483,-0.0429,-0.0415,-0.0384,-0.0351,-0.0338,-0.0313,-0.0308,-0.0239,-0.0227,-0.0183,-0.0138,-0.0127,-0.0127,-0.0107,-0.0017,-0.0017,-0.0017,-0.0082,-0.0087,-0.0091,0,0,0,0,0,-0.049,-0.0497,-0.0484,-0.0477,-0.0422,-0.0385,-0.0374,-0.0329,-0.0314,-0.0307,-0.026,-0.0229,-0.013,-0.0135,-0.0121,-0.012,-0.0017,-0.0017,-0.0017,-0.008,-0.0086,-0.0091,0,0,0,0,0,0,-0.0526,-0.0489,-0.0474,-0.0468,-0.0434,-0.0374,-0.0365,-0.0336,-0.0293,-0.0289,-0.0228,-0.0212,-0.0179,-0.0141,-0.0147,-0.0091,-0.0069,-0.0067,-0.0122,-0.0126,-0.0131,-0.0144,-0.0103,0,0,0,0,0,-0.0539,-0.0537,-0.0491,-0.0488,-0.0474,-0.0422,-0.0402,-0.0373,-0.0329,-0.0309,-0.0261,-0.0211,-0.0168,-0.0142,-0.01,-0.0069,-0.0027,-0.0059,-0.0063,-0.0067,-0.0069,-0.0011,-0.0011,-0.0018,-0.0018,-0.0018,0,0,-0.0552,-0.0532,-0.053,-0.0496,-0.0466,-0.0453,-0.0409,-0.0385,-0.0371,-0.0303,-0.0272,-0.0226,-0.0164,-0.013,-0.0111,-0.0098,-0.0044,-0.0067,-0.0071,-0.007,-0.0011,-0.0011,-0.001,-0.0018,-0.0018,-0.0018,0,0,-0.0581,-0.056,-0.057,-0.0547,-0.0512,-0.0478,-0.0477,-0.0423,-0.0395,-0.0361,-0.031,-0.0266,-0.0202,-0.0155,-0.0124,-0.0126,-0.0072,-0.0115,-0.0141,-0.0086,-0.0085,-0.0084,-0.0036,-0.0029,-0.0113,-0.0113,-0.0113,0,-0.0599,-0.0604,-0.0566,-0.0568,-0.0555,-0.0497,-0.0501,-0.0463,-0.0402,-0.038,-0.0362,-0.0261,-0.0213,-0.016,-0.0161,-0.0136,-0.0098,-0.0129,-0.0092,-0.009,-0.0087,-0.0038,-0.0031,-0.0116,-0.0116,-0.0116,-0.0115,0,-0.0633,-0.0637,-0.064,-0.0626,-0.0605,-0.0599,-0.0547,-0.0522,-0.0484,-0.0441,-0.0385,-0.0314,-0.0253,-0.0231,-0.0196,-0.0153,-0.0131,-0.0109,-0.0083,-0.0091,-0.0039,-0.0029,-0.0121,-0.012,-0.0119,-0.0118,0,0,-0.0674,-0.0668,-0.067,-0.0678,-0.0638,-0.0627,-0.0602,-0.0561,-0.0543,-0.0477,-0.0445,-0.0367,-0.0323,-0.0286,-0.023,-0.0178,-0.013,-0.0142,-0.0138,-0.0101,-0.0011,0.004,0.0055,-0.0102,-0.0101,-0.01,0.0016,0,-0.0713,-0.0747,-0.0722,-0.0742,-0.0753,-0.0696,-0.0679,-0.0631,-0.0577,-0.0529,-0.0442,-0.0391,-0.0345,-0.0315,-0.0258,-0.016,-0.0108,-0.0163,-0.0002,0.0003,0.0043,0.0067,0.0092,0.0201,0.0026,0.0027,0.0028,0,-0.0754,-0.0773,-0.081,-0.0809,-0.0806,-0.0803,-0.0765,-0.0739,-0.0651,-0.0609,-0.0536,-0.0462,-0.0372,-0.0335,-0.0175,-0.0213,-0.0123,-0.0046,-0.0039,0.0039,0.0071,0.0184,0.0225,0.0378,0.0043,0.0042,0.0041,0,-0.0812,-0.0831,-0.0868,-0.0867,-0.0853,-0.0853,-0.0835,-0.0766,-0.0745,-0.0654,-0.0624,-0.0505,-0.0438,-0.0315,-0.0152,-0.0164,0.0029,0.0035,0.0167,0.0171,0.0242,0.025,0.0446,0.0145,0.0145,0.0145,0.0144,0,-0.0865,-0.0891,-0.0902,-0.0922,-0.0957,-0.0916,-0.0924,-0.0883,-0.0821,-0.0793,-0.0673,-0.062,-0.0429,-0.0292,-0.016,0.0041,0.0027,0.0172,0.0211,0.0219,0.0223,0.0399,0.045,0.0149,0.0148,0.0147,0.0147,0,-0.092,-0.0926,-0.0972,-0.0983,-0.0988,-0.1011,-0.1,-0.0999,-0.0926,-0.0884,-0.0857,-0.0695,-0.0507,-0.0306,-0.0082,0.004,0.0318,0.0291,0.0286,0.0323,0.0573,0.0618,0.0849,0.0924,0.0448,0.045,0.0451,0,-0.0952,-0.0983,-0.103,-0.1064,-0.1074,-0.1099,-0.1113,-0.1062,-0.1053,-0.0929,-0.0913,-0.0716,-0.0568,-0.0214,0.0047,0.0311,0.0419,0.0484,0.0469,0.0607,0.0687,0.0719,0.0766,0.0534,0.0536,0.0538,0.0539,0,-0.101,-0.1027,-0.1067,-0.1146,-0.1183,-0.1218,-0.1229,-0.1241,-0.116,-0.1099,-0.0982,-0.0848,-0.0479,-0.0152,0.0213,0.0368,0.0595,0.053,0.0685,0.0785,0.0824,0.0907,0.0429,0.0556,0.0554,0.0553,0.0552,0.0551,-0.1044,-0.1095,-0.1152,-0.1222,-0.1273,-0.1321,-0.1346,-0.1331,-0.1303,-0.1187,-0.1051,-0.0819,-0.0328,0.0195,0.0385,0.0796,0.075,0.0906,0.0953,0.0977,0.1047,0.0602,0.0764,0.0764,0.0763,0.0763,0.0763,0,-0.1084,-0.1144,-0.1222,-0.1302,-0.137,-0.1374,-0.1407,-0.1404,-0.1368,-0.1216,-0.1067,-0.0542,-0.0055,0.0399,0.0983,0.1205,0.1241,0.1313,0.1367,0.1397,0.1025,0.1026,0.1239,0.1239,0.1239,0.1239,0.1239,0.1239,-0.1107,-0.1191,-0.1238,-0.1361,-0.1417,-0.1477,-0.1495,-0.1464,-0.137,-0.1113,-0.0824,-0.0595,0.0079,0.1019,0.1562,0.1612,0.177,0.1767,0.1852,0.1597,0.1562,0.1529,0.1546,0.1864,0.1865,0.2205,0.2208,0.2211]}],[{"header":{"parameterUnit":"m.s-1","parameterCategory":2,"la1":30.2991,"la2":30.254,"lo1":-89.0895,"lo2":-89.0444,"dy":0.0017,"dx":0.0017,"nx":28,"ny":28,"refTime":"2025-01-13T09:00:00:Z","depth":"2","parameterNumber":2,"parameterNumberName":"U-component_of_CURRENTS"},"data":[0,0,0,0,0,0,0,0,0,0,0,0,0,0,0,0,0,0,0,0,0,0,0,0,0,0,0,0,0,0,0,0,0,0,0,0,0,0,0,0,0,0,0,0,0,0,0,0,0,0,0,0,0,0,0,0,0,0,-0.2368,-0.2369,0,-0.2392,-0.2393,-0.2393,-0.2365,-0.2364,-0.2363,-0.2362,-0.2345,-0.2346,-0.2346,0,0,0,0,0,0,0,0,0,0,0,0,0,-0.2296,-0.2297,-0.2368,-0.2369,-0.2369,-0.2392,-0.2393,-0.2393,-0.2365,-0.2364,-0.2363,-0.2362,-0.2345,-0.2346,-0.2346,0,0,0,0,0,0,0,0,0,0,0,0,0,-0.2322,-0.2297,-0.2368,-0.2359,-0.2359,-0.2392,-0.2393,-0.2393,-0.2365,-0.2364,-0.2362,-0.2361,-0.2345,-0.2346,-0.2346,-0.2376,0,0,-0.2348,-0.2348,0,0,0,0,0,0,0,0,-0.2321,-0.2325,-0.236,-0.236,-0.236,-0.2376,-0.2361,-0.2386,-0.2365,-0.2361,-0.2362,-0.2361,-0.2354,-0.2354,-0.2359,-0.2375,-0.2375,-0.2348,-0.2348,-0.2349,-0.2349,0,0,0,0,0,0,0,-0.2319,-0.2324,-0.2376,-0.2361,-0.2361,-0.2354,-0.2356,-0.2366,-0.2362,-0.2361,-0.236,-0.2366,-0.2353,-0.2359,-0.2358,-0.2374,-0.2348,-0.2348,-0.2349,-0.2349,-0.2408,-0.2409,0,0,0,0,0,0,-0.2322,-0.2322,-0.2375,-0.2377,-0.2339,-0.2356,-0.2359,-0.237,-0.2363,-0.2362,-0.2367,-0.2364,-0.2358,-0.2358,-0.2358,-0.2389,-0.2349,-0.2349,-0.2349,-0.2407,-0.2408,-0.241,0,0,0,0,0,0,-0.232,-0.2327,-0.2374,-0.2351,-0.2357,-0.2359,-0.2373,-0.2372,-0.2376,-0.2368,-0.2365,-0.2372,-0.2357,-0.2357,-0.237,-0.2388,-0.2349,-0.235,-0.2405,-0.2407,-0.2409,-0.2454,0,0,0,0,0,0,-0.2318,-0.2326,-0.2334,-0.2352,-0.2358,-0.2397,-0.2374,-0.2373,-0.2383,-0.238,-0.2372,-0.2369,-0.2356,-0.2369,-0.2371,-0.2388,-0.235,-0.2404,-0.2406,-0.2408,-0.2451,-0.2457,-0.2462,0,0,0,0,0,-0.2316,-0.2334,-0.2335,-0.2341,-0.237,-0.2398,-0.2401,-0.2396,-0.2384,-0.2393,-0.2388,-0.2369,-0.2385,-0.2371,-0.2372,-0.239,-0.2403,-0.2406,-0.2408,-0.2448,-0.2456,-0.2462,0,0,0,0,0,0,-0.231,-0.2334,-0.2334,-0.236,-0.2379,-0.2394,-0.2403,-0.2403,-0.2408,-0.2402,-0.2387,-0.2385,-0.2404,-0.2396,-0.2381,-0.2415,-0.239,-0.2393,-0.242,-0.2427,-0.2433,-0.243,-0.2351,0,0,0,0,0,-0.2314,-0.2329,-0.2354,-0.2373,-0.2385,-0.2396,-0.2405,-0.2408,-0.2416,-0.2416,-0.2412,-0.2411,-0.2419,-0.242,-0.2426,-0.2447,-0.2433,-0.246,-0.2465,-0.247,-0.247,-0.2473,-0.2479,-0.2419,-0.2419,-0.2419,0,0,-0.2315,-0.2331,-0.2339,-0.2372,-0.2384,-0.241,-0.2397,-0.242,-0.2438,-0.2415,-0.2434,-0.2434,-0.2431,-0.2452,-0.2459,-0.2444,-0.248,-0.2474,-0.2478,-0.2474,-0.2477,-0.2483,-0.2488,-0.2421,-0.242,-0.242,0,0,-0.2325,-0.2343,-0.2357,-0.238,-0.2407,-0.2421,-0.243,-0.2453,-0.2458,-0.2485,-0.2471,-0.2482,-0.2495,-0.2495,-0.2497,-0.2541,-0.2513,-0.2544,-0.2567,-0.2571,-0.2576,-0.258,-0.2565,-0.2568,-0.2543,-0.2543,-0.2544,0,-0.2323,-0.2348,-0.2366,-0.2392,-0.2412,-0.2428,-0.2453,-0.2472,-0.2495,-0.2505,-0.2494,-0.2522,-0.2516,-0.2543,-0.2552,-0.2553,-0.2543,-0.2539,-0.2578,-0.2581,-0.2585,-0.2569,-0.2571,-0.2546,-0.2546,-0.2545,-0.2545,0,-0.2342,-0.2369,-0.2383,-0.2418,-0.2445,-0.2471,-0.2505,-0.2529,-0.2538,-0.2551,-0.2582,-0.2582,-0.2592,-0.2598,-0.2585,-0.2611,-0.2592,-0.2586,-0.2557,-0.2593,-0.2574,-0.2575,-0.255,-0.2549,-0.2548,-0.2547,0,0,-0.2314,-0.2382,-0.2384,-0.2406,-0.2461,-0.2482,-0.2529,-0.2569,-0.259,-0.2616,-0.2638,-0.2659,-0.2653,-0.2655,-0.2648,-0.265,-0.266,-0.2626,-0.2625,-0.2606,-0.2655,-0.2588,-0.2582,-0.266,-0.266,-0.2661,-0.2631,0,-0.2317,-0.2363,-0.2402,-0.2447,-0.2473,-0.2519,-0.2559,-0.2599,-0.2626,-0.2653,-0.2668,-0.2685,-0.2678,-0.2678,-0.2686,-0.2666,-0.2666,-0.2667,-0.2628,-0.2627,-0.2558,-0.2582,-0.2387,-0.234,-0.2632,-0.2632,-0.2632,0,-0.2312,-0.2345,-0.2389,-0.2458,-0.2474,-0.2506,-0.2566,-0.2606,-0.2659,-0.2681,-0.2711,-0.2717,-0.2733,-0.2716,-0.2713,-0.2713,-0.2688,-0.2672,-0.267,-0.259,-0.2561,-0.2353,-0.2331,-0.2634,-0.2634,-0.2634,-0.2633,0,-0.2259,-0.2333,-0.2363,-0.2387,-0.2471,-0.2497,-0.2538,-0.2602,-0.2637,-0.2688,-0.2713,-0.274,-0.2747,-0.2736,-0.2713,-0.2709,-0.2698,-0.2687,-0.2605,-0.2599,-0.2416,-0.2393,-0.2682,-0.2682,-0.2682,-0.2682,-0.2682,0,-0.2236,-0.2258,-0.2339,-0.2352,-0.239,-0.2461,-0.2504,-0.2554,-0.2622,-0.2652,-0.2711,-0.273,-0.2753,-0.2753,-0.2722,-0.2666,-0.2707,-0.2608,-0.259,-0.2426,-0.2406,-0.2648,-0.2644,-0.2681,-0.2681,-0.2681,-0.2682,0,-0.2164,-0.2221,-0.2257,-0.2339,-0.2363,-0.2384,-0.2476,-0.2502,-0.2586,-0.2627,-0.2643,-0.2722,-0.2719,-0.2732,-0.2709,-0.2668,-0.2624,-0.2594,-0.2394,-0.2354,-0.2517,-0.2516,-0.2489,-0.2487,-0.2485,-0.2483,-0.2481,0,-0.2128,-0.2138,-0.2221,-0.2234,-0.2266,-0.2317,-0.2347,-0.2456,-0.2489,-0.2606,-0.2608,-0.2656,-0.2654,-0.262,-0.2559,-0.2498,-0.2567,-0.2279,-0.2239,-0.2513,-0.2499,-0.2502,-0.2504,-0.201,-0.2004,-0.2,-0.1997,0,-0.2046,-0.2077,-0.2102,-0.2135,-0.2164,-0.221,-0.2263,-0.2293,-0.2412,-0.2457,-0.2503,-0.2518,-0.2518,-0.2375,-0.2323,-0.2255,-0.2274,-0.2189,-0.252,-0.2099,-0.2061,-0.2048,-0.2065,-0.1958,-0.1962,-0.1965,-0.1967,-0.1969,-0.1967,-0.1964,-0.1995,-0.2012,-0.2047,-0.2066,-0.2057,-0.2129,-0.2165,-0.2201,-0.2312,-0.2275,-0.2265,-0.2089,-0.1986,-0.1907,-0.206,-0.1947,-0.1959,-0.1977,-0.1937,-0.1898,-0.1757,-0.1759,-0.1761,-0.1763,-0.1765,0,-0.1854,-0.186,-0.1868,-0.1882,-0.1859,-0.193,-0.1964,-0.1927,-0.1912,-0.1984,-0.2003,-0.1817,-0.1737,-0.1738,-0.1569,-0.1533,-0.151,-0.1451,-0.1418,-0.1457,-0.1492,-0.1427,-0.1111,-0.1109,-0.1107,-0.1106,0,0,-0.1794,-0.1753,-0.1755,-0.1678,-0.1686,-0.1618,-0.1607,-0.1578,-0.1591,-0.1537,-0.1527,-0.1666,-0.1704,-0.1416,-0.1338,-0.1204,-0.1317,-0.1139,-0.1664,-0.1666,-0.1698,-0.1778,-0.1722,0,0,0,0,0]},{"header":{"parameterUnit":"m.s-1","parameterCategory":2,"la1":30.2991,"la2":30.254,"lo1":-89.0895,"lo2":-89.0444,"dy":0.0017,"dx":0.0017,"nx":28,"ny":28,"refTime":"2025-01-13T09:00:00:Z","depth":"2","parameterNumber":3,"parameterNumberName":"V-component_of_CURRENTS"},"data":[0,0,0,0,0,0,0,0,0,0,0,0,0,0,0,0,0,0,0,0,0,0,0,0,0,0,0,0,0,0,0,0,0,0,0,0,0,0,0,0,0,0,0,0,0,0,0,0,0,0,0,0,0,0,0,0,0,0,-0.0274,-0.0274,0,-0.0184,-0.0183,-0.0181,-0.0121,-0.012,-0.012,-0.012,-0.0009,-0.0006,-0.0004,0,0,0,0,0,0,0,0,0,0,0,0,0,-0.033,-0.0329,-0.0275,-0.0274,-0.0273,-0.0184,-0.0183,-0.0181,-0.0121,-0.012,-0.012,-0.012,-0.001,-0.0007,-0.0003,0,0,0,0,0,0,0,0,0,0,0,0,0,-0.0277,-0.0329,-0.0275,-0.0233,-0.0229,-0.0184,-0.0183,-0.0181,-0.0121,-0.012,-0.012,-0.012,-0.0011,-0.0007,-0.0003,0.0015,0,0,0.001,0.0011,0,0,0,0,0,0,0,0,-0.0281,-0.0275,-0.024,-0.0236,-0.0231,-0.0165,-0.0161,-0.0115,-0.0121,-0.016,-0.012,-0.0119,-0.0061,-0.0053,-0.0034,0.002,0.0025,0.001,0.0012,0.0014,0.0015,0,0,0,0,0,0,0,-0.0284,-0.0278,-0.0237,-0.0239,-0.0234,-0.0197,-0.0189,-0.0152,-0.0112,-0.0156,-0.0152,-0.0145,-0.0058,-0.0038,-0.0031,0.0026,0.001,0.0013,0.0016,0.0017,0.0108,0.0108,0,0,0,0,0,0,-0.0303,-0.0282,-0.024,-0.0234,-0.0257,-0.0196,-0.0188,-0.0185,-0.0112,-0.0102,-0.0146,-0.0143,-0.0045,-0.0036,-0.0027,-0.0003,0.0014,0.0018,0.002,0.0108,0.0108,0.0108,0,0,0,0,0,0,-0.0305,-0.03,-0.0243,-0.0257,-0.0248,-0.0197,-0.0193,-0.0183,-0.0165,-0.0105,-0.0093,-0.0138,-0.0044,-0.0032,0.0004,0.0001,0.002,0.0023,0.0108,0.0108,0.0108,0.0044,0,0,0,0,0,0,-0.0307,-0.0302,-0.0307,-0.0259,-0.0248,-0.0224,-0.0193,-0.0182,-0.0162,-0.0157,-0.0094,-0.0083,-0.0043,-0.0003,0.0008,0.0007,0.0027,0.0108,0.0108,0.0108,0.0046,0.0042,0.0038,0,0,0,0,0,-0.0309,-0.0319,-0.0308,-0.0303,-0.0257,-0.0225,-0.0216,-0.0176,-0.0163,-0.0158,-0.0115,-0.0086,0.0004,0.0,0.0013,0.0013,0.0108,0.0108,0.0108,0.0048,0.0043,0.0038,0,0,0,0,0,0,-0.0343,-0.0312,-0.0299,-0.0299,-0.0269,-0.0216,-0.0209,-0.0183,-0.0145,-0.0142,-0.0085,-0.0071,-0.0041,-0.0006,-0.0011,0.004,0.0061,0.0063,0.0011,0.0007,0.0003,-0.001,0.003,0,0,0,0,0,-0.0356,-0.0357,-0.0317,-0.0318,-0.0306,-0.026,-0.0243,-0.0218,-0.0178,-0.0161,-0.0117,-0.0071,-0.0031,-0.0007,0.0031,0.006,0.0098,0.0069,0.0064,0.0061,0.0059,0.0113,0.0113,0.0108,0.0108,0.0108,0,0,-0.0368,-0.0353,-0.0352,-0.0325,-0.0299,-0.0289,-0.0249,-0.023,-0.0218,-0.0155,-0.0128,-0.0086,-0.0028,0.0003,0.002,0.0033,0.0081,0.006,0.0057,0.0058,0.0113,0.0113,0.0114,0.0108,0.0108,0.0108,0,0,-0.0398,-0.0382,-0.0394,-0.0374,-0.0345,-0.0314,-0.0314,-0.0267,-0.0242,-0.0212,-0.0165,-0.0124,-0.0066,-0.0021,0.0008,0.0005,0.0055,0.0016,-0.001,0.0042,0.0043,0.0044,0.0087,0.0092,0.0017,0.0017,0.0017,0,-0.0416,-0.0425,-0.0391,-0.0395,-0.0385,-0.0332,-0.0339,-0.0304,-0.025,-0.0231,-0.0214,-0.0121,-0.0076,-0.0027,-0.0027,-0.0004,0.003,0.0002,0.0036,0.0038,0.004,0.0084,0.0091,0.0014,0.0014,0.0015,0.0015,0,-0.0451,-0.0457,-0.0462,-0.0451,-0.0434,-0.0431,-0.0384,-0.0362,-0.0328,-0.0289,-0.0238,-0.0171,-0.0116,-0.0094,-0.0061,-0.0021,-0.0001,0.002,0.0045,0.0037,0.0084,0.0092,0.001,0.0011,0.0012,0.0013,0,0,-0.0493,-0.049,-0.0492,-0.0501,-0.0466,-0.0458,-0.0436,-0.0399,-0.0385,-0.0324,-0.0296,-0.0222,-0.0182,-0.0147,-0.0094,-0.0045,-0.0001,-0.0012,-0.0007,0.0024,0.0107,0.0145,0.0158,0.0025,0.0026,0.0027,0.0131,0,-0.0531,-0.0566,-0.0544,-0.0565,-0.0577,-0.0526,-0.051,-0.0468,-0.0419,-0.0376,-0.0293,-0.0248,-0.0202,-0.0177,-0.0121,-0.0031,0.0019,-0.0032,0.0117,0.0121,0.015,0.0169,0.0136,0.0228,0.0139,0.0141,0.0142,0,-0.0572,-0.0591,-0.0628,-0.063,-0.0629,-0.0628,-0.0596,-0.0573,-0.0493,-0.0455,-0.0387,-0.0318,-0.0234,-0.0198,-0.0048,-0.0084,0.0001,0.0075,0.0081,0.0145,0.0175,0.0225,0.0247,0.0156,0.0155,0.0154,0.0153,0,-0.0627,-0.0648,-0.0684,-0.0685,-0.0674,-0.0677,-0.0662,-0.0601,-0.0584,-0.05,-0.0475,-0.0363,-0.0306,-0.0185,-0.0034,-0.0042,0.0135,0.0144,0.0261,0.0265,0.0282,0.0285,0.025,0.0249,0.0249,0.0249,0.0249,0,-0.0678,-0.0705,-0.0718,-0.0738,-0.0775,-0.0738,-0.0751,-0.0714,-0.0659,-0.0637,-0.0524,-0.0477,-0.03,-0.0173,-0.0044,0.0139,0.013,0.0264,0.03,0.0259,0.0258,0.0232,0.0228,0.0253,0.0252,0.0251,0.0251,0,-0.073,-0.0737,-0.0783,-0.0797,-0.0804,-0.083,-0.0825,-0.0827,-0.0763,-0.0728,-0.0704,-0.0558,-0.0387,-0.0199,0.0012,0.0127,0.0297,0.0364,0.0303,0.0329,0.0391,0.0383,0.0498,0.05,0.0502,0.0504,0.0505,0,-0.076,-0.0791,-0.084,-0.0875,-0.0887,-0.0916,-0.0931,-0.0887,-0.0882,-0.0774,-0.0762,-0.0588,-0.0454,-0.0128,0.011,0.0359,0.0358,0.0469,0.0453,0.0397,0.042,0.0408,0.0398,0.0447,0.0448,0.0449,0.0449,0,-0.0815,-0.0834,-0.0873,-0.0953,-0.0992,-0.1029,-0.1044,-0.1057,-0.0987,-0.0936,-0.0834,-0.0714,-0.0386,-0.0111,0.0222,0.0361,0.0426,0.0491,0.0464,0.0388,0.0358,0.0377,0.0367,0.0455,0.0455,0.0454,0.0454,0.0454,-0.0849,-0.0897,-0.0955,-0.1025,-0.1078,-0.1126,-0.1151,-0.1141,-0.112,-0.1019,-0.09,-0.0692,-0.0411,0.0058,0.0292,0.0513,0.0508,0.056,0.0555,0.0549,0.0524,0.0498,0.0617,0.0617,0.0618,0.0618,0.0618,0,-0.0888,-0.0945,-0.1022,-0.1101,-0.1168,-0.1177,-0.1211,-0.1205,-0.1176,-0.1045,-0.0913,-0.0595,-0.0266,0.003,0.0385,0.0596,0.0571,0.0624,0.0548,0.0542,0.0536,0.0506,0.0597,0.0598,0.0598,0.0598,0,0,-0.0909,-0.099,-0.1034,-0.1153,-0.1212,-0.1272,-0.1291,-0.1256,-0.117,-0.1035,-0.0869,-0.0639,-0.0268,-0.0025,0.0244,0.043,0.0426,0.0445,0.0441,0.0312,0.0304,0.0482,0.0428,0,0,0,0,0]}],[{"header":{"parameterUnit":"m.s-1","parameterCategory":2,"la1":30.2991,"la2":30.254,"lo1":-89.0895,"lo2":-89.0444,"dy":0.0017,"dx":0.0017,"nx":28,"ny":28,"refTime":"2025-01-13T09:00:00:Z","depth":"4","parameterNumber":2,"parameterNumberName":"U-component_of_CURRENTS"},"data":[0,0,0,0,0,0,0,0,0,0,0,0,0,0,0,0,0,0,0,0,0,0,0,0,0,0,0,0,0,0,0,0,0,0,0,0,0,0,0,0,0,0,0,0,0,0,0,0,0,0,0,0,0,0,0,0,0,0,-0.1622,-0.1622,0,-0.1684,-0.1684,-0.1685,-0.172,-0.172,-0.172,-0.1721,-0.1782,-0.1783,-0.1784,0,0,0,0,0,0,0,0,0,0,0,0,0,-0.1535,-0.1536,-0.1621,-0.1622,-0.1623,-0.1683,-0.1684,-0.1685,-0.172,-0.172,-0.1721,-0.1721,-0.1781,-0.1783,-0.1784,0,0,0,0,0,0,0,0,0,0,0,0,0,-0.1581,-0.1536,-0.1621,-0.1649,-0.1652,-0.1683,-0.1684,-0.1685,-0.172,-0.172,-0.1721,-0.1721,-0.1781,-0.1783,-0.1785,-0.179,0,0,-0.1791,-0.1792,0,0,0,0,0,0,0,0,-0.1578,-0.1584,-0.1644,-0.1647,-0.1651,-0.1696,-0.1676,-0.1721,-0.172,-0.1693,-0.1721,-0.1721,-0.1753,-0.1758,-0.1767,-0.1793,-0.1795,-0.1791,-0.1792,-0.1793,-0.1794,0,0,0,0,0,0,0,-0.1575,-0.1581,-0.1645,-0.1645,-0.1649,-0.1659,-0.1666,-0.1685,-0.1719,-0.1695,-0.1698,-0.1707,-0.1755,-0.1764,-0.1768,-0.1796,-0.1791,-0.1793,-0.1794,-0.1795,-0.1901,-0.1903,0,0,0,0,0,0,-0.157,-0.1578,-0.1643,-0.1647,-0.1616,-0.166,-0.1668,-0.168,-0.1719,-0.1726,-0.1707,-0.1709,-0.1761,-0.1766,-0.1771,-0.1846,-0.1793,-0.1795,-0.1796,-0.19,-0.1902,-0.1903,0,0,0,0,0,0,-0.1568,-0.1575,-0.164,-0.1615,-0.1624,-0.1662,-0.1675,-0.1681,-0.1717,-0.1728,-0.1735,-0.174,-0.1761,-0.1768,-0.1814,-0.1846,-0.1796,-0.1798,-0.1898,-0.19,-0.1902,-0.1954,0,0,0,0,0,0,-0.1565,-0.1574,-0.1594,-0.1615,-0.1625,-0.1677,-0.1675,-0.1682,-0.1721,-0.1725,-0.1758,-0.1763,-0.1762,-0.1811,-0.1816,-0.1848,-0.18,-0.1896,-0.1899,-0.1902,-0.195,-0.1958,-0.1964,0,0,0,0,0,-0.1562,-0.1583,-0.1594,-0.1603,-0.1647,-0.1678,-0.1685,-0.1711,-0.1722,-0.1744,-0.177,-0.1763,-0.1833,-0.1815,-0.182,-0.1853,-0.1894,-0.1898,-0.1901,-0.1947,-0.1957,-0.1964,0,0,0,0,0,0,-0.156,-0.159,-0.1602,-0.1634,-0.1663,-0.1685,-0.1712,-0.1728,-0.1765,-0.1777,-0.1784,-0.1791,-0.1843,-0.1843,-0.1822,-0.1893,-0.1862,-0.1867,-0.1896,-0.1904,-0.1911,-0.1904,-0.1801,0,0,0,0,0,-0.1568,-0.1591,-0.162,-0.1648,-0.1665,-0.1694,-0.1715,-0.1735,-0.1764,-0.1782,-0.1807,-0.1833,-0.1858,-0.1878,-0.1898,-0.1939,-0.1923,-0.1964,-0.1971,-0.1976,-0.1975,-0.1983,-0.199,-0.1915,-0.1915,-0.1915,0,0,-0.1576,-0.1595,-0.1611,-0.165,-0.1675,-0.1707,-0.1708,-0.1751,-0.1784,-0.1782,-0.1845,-0.1862,-0.1875,-0.192,-0.1943,-0.1927,-0.1991,-0.1981,-0.1986,-0.1981,-0.1987,-0.1994,-0.2001,-0.1917,-0.1917,-0.1916,0,0,-0.1592,-0.1623,-0.1644,-0.1673,-0.1716,-0.1736,-0.1754,-0.1796,-0.1826,-0.188,-0.1887,-0.1924,-0.1969,-0.1981,-0.1991,-0.205,-0.2028,-0.2063,-0.2094,-0.2102,-0.2108,-0.2113,-0.2101,-0.2104,-0.2066,-0.2066,-0.2066,0,-0.1602,-0.1632,-0.1657,-0.1687,-0.1717,-0.1752,-0.1786,-0.1821,-0.1876,-0.1902,-0.191,-0.1982,-0.1995,-0.2038,-0.2059,-0.2066,-0.2059,-0.2059,-0.211,-0.2114,-0.2118,-0.2105,-0.2108,-0.2069,-0.2069,-0.2069,-0.2068,0,-0.1623,-0.1663,-0.1682,-0.1729,-0.1765,-0.1803,-0.185,-0.1897,-0.1938,-0.1965,-0.2031,-0.2053,-0.209,-0.2105,-0.2101,-0.2143,-0.2125,-0.2117,-0.2084,-0.2129,-0.2112,-0.2114,-0.2073,-0.2072,-0.2071,-0.2071,0,0,-0.1599,-0.168,-0.1689,-0.1722,-0.1793,-0.182,-0.1889,-0.1947,-0.1989,-0.2048,-0.2094,-0.2146,-0.2158,-0.2169,-0.2175,-0.2185,-0.2207,-0.2167,-0.2166,-0.2147,-0.2214,-0.2071,-0.2059,-0.221,-0.2211,-0.2212,-0.219,0,-0.1608,-0.1665,-0.1709,-0.1776,-0.181,-0.1873,-0.1929,-0.1991,-0.2043,-0.2097,-0.2133,-0.2178,-0.2182,-0.2202,-0.2217,-0.221,-0.2216,-0.2213,-0.2181,-0.2179,-0.204,-0.2058,-0.2214,-0.2191,-0.2192,-0.2192,-0.2192,0,-0.1602,-0.1645,-0.1709,-0.1799,-0.1821,-0.1871,-0.1962,-0.2017,-0.2097,-0.2138,-0.2192,-0.2216,-0.2254,-0.2243,-0.226,-0.2259,-0.2242,-0.2232,-0.223,-0.2077,-0.2039,-0.2139,-0.2196,-0.2196,-0.2195,-0.2195,-0.2195,0,-0.1548,-0.1642,-0.1694,-0.1726,-0.1832,-0.1881,-0.194,-0.2029,-0.2077,-0.216,-0.2196,-0.2247,-0.2273,-0.2274,-0.2263,-0.2265,-0.2259,-0.2255,-0.2112,-0.2102,-0.2215,-0.221,-0.2259,-0.2259,-0.226,-0.226,-0.226,0,-0.1518,-0.1563,-0.1678,-0.1704,-0.1772,-0.1858,-0.1932,-0.1999,-0.2087,-0.2126,-0.2208,-0.223,-0.2284,-0.2289,-0.227,-0.2186,-0.2266,-0.2109,-0.2084,-0.2237,-0.2235,-0.2216,-0.2211,-0.2259,-0.2259,-0.2259,-0.2259,0,-0.1442,-0.1521,-0.1586,-0.1706,-0.1747,-0.1794,-0.1919,-0.1958,-0.2062,-0.2112,-0.2138,-0.2224,-0.2221,-0.2249,-0.2241,-0.2175,-0.2121,-0.2075,-0.2228,-0.2214,-0.1957,-0.1956,-0.1902,-0.1897,-0.1892,-0.1889,-0.1886,0,-0.1403,-0.143,-0.1565,-0.1601,-0.1659,-0.1746,-0.1795,-0.1924,-0.1957,-0.208,-0.2076,-0.2131,-0.2164,-0.2038,-0.2085,-0.2031,-0.2012,-0.1973,-0.197,-0.1938,-0.192,-0.1926,-0.1931,-0.1878,-0.1877,-0.1876,-0.1875,0,-0.1321,-0.1384,-0.1435,-0.1509,-0.1573,-0.1637,-0.1716,-0.173,-0.1856,-0.1973,-0.1957,-0.195,-0.1944,-0.1931,-0.1906,-0.1871,-0.199,-0.1926,-0.1935,-0.1932,-0.1908,-0.1897,-0.1907,-0.1859,-0.1862,-0.1863,-0.1864,0,-0.1257,-0.1272,-0.1344,-0.1394,-0.1467,-0.1487,-0.1557,-0.1591,-0.1646,-0.1785,-0.1769,-0.1831,-0.1916,-0.1846,-0.1819,-0.1774,-0.1749,-0.1692,-0.1713,-0.173,-0.1683,-0.1629,-0.1463,0,0,0,0,0,-0.1182,-0.1181,-0.1218,-0.1266,-0.133,-0.1372,-0.1477,-0.1549,-0.1674,-0.1613,-0.1689,-0.1673,-0.1643,-0.1679,-0.1594,-0.1735,-0.1753,-0.1629,-0.1698,-0.1773,-0.1791,-0.1752,0,0,0,0,0,0,-0.1131,-0.1161,-0.1171,-0.1137,-0.1142,-0.12,-0.1259,-0.1353,-0.1335,-0.1467,-0.1458,-0.1561,-0.1555,-0.1657,-0.1554,-0.1563,-0.157,-0.1678,-0.1674,-0.1763,-0.1779,-0.1794,-0.176,0,0,0,0,0]},{"header":{"parameterUnit":"m.s-1","parameterCategory":2,"la1":30.2991,"la2":30.254,"lo1":-89.0895,"lo2":-89.0444,"dy":0.0017,"dx":0.0017,"nx":28,"ny":28,"refTime":"2025-01-13T09:00:00:Z","depth":"4","parameterNumber":3,"parameterNumberName":"V-component_of_CURRENTS"},"data":[0,0,0,0,0,0,0,0,0,0,0,0,0,0,0,0,0,0,0,0,0,0,0,0,0,0,0,0,0,0,0,0,0,0,0,0,0,0,0,0,0,0,0,0,0,0,0,0,0,0,0,0,0,0,0,0,0,0,-0.0149,-0.0149,0,-0.0092,-0.0092,-0.0091,-0.0048,-0.0048,-0.0048,-0.0048,0.0038,0.004,0.0042,0,0,0,0,0,0,0,0,0,0,0,0,0,-0.017,-0.017,-0.0149,-0.0149,-0.0148,-0.0093,-0.0092,-0.0091,-0.0048,-0.0048,-0.0048,-0.0047,0.0037,0.0039,0.0042,0,0,0,0,0,0,0,0,0,0,0,0,0,-0.014,-0.017,-0.0149,-0.0121,-0.0119,-0.0093,-0.0092,-0.009,-0.0048,-0.0048,-0.0048,-0.0047,0.0036,0.0039,0.0042,0.0054,0,0,0.0052,0.0053,0,0,0,0,0,0,0,0,-0.0142,-0.0139,-0.0126,-0.0123,-0.012,-0.0078,-0.0068,-0.0041,-0.0048,-0.0073,-0.0048,-0.0047,0.0,0.0006,0.0018,0.0058,0.0062,0.0052,0.0054,0.0055,0.0056,0,0,0,0,0,0,0,-0.0144,-0.0141,-0.0125,-0.0126,-0.0122,-0.0094,-0.009,-0.0062,-0.0037,-0.0071,-0.0068,-0.0065,0.0002,0.0015,0.002,0.0063,0.0052,0.0054,0.0056,0.0058,0.0128,0.0128,0,0,0,0,0,0,-0.0158,-0.0144,-0.0127,-0.0124,-0.0132,-0.0095,-0.009,-0.0091,-0.0038,-0.0031,-0.0065,-0.0063,0.0009,0.0017,0.0024,0.0041,0.0055,0.0058,0.006,0.0128,0.0128,0.0128,0,0,0,0,0,0,-0.0158,-0.0157,-0.0129,-0.0133,-0.0128,-0.0095,-0.0096,-0.009,-0.0079,-0.0034,-0.0026,-0.0061,0.001,0.0019,0.0046,0.0045,0.0059,0.0062,0.0128,0.0128,0.0128,0.0076,0,0,0,0,0,0,-0.0159,-0.0158,-0.0165,-0.0134,-0.0128,-0.012,-0.0097,-0.0089,-0.0078,-0.0075,-0.0028,-0.002,0.0011,0.0041,0.0049,0.0049,0.0064,0.0128,0.0128,0.0128,0.0078,0.0075,0.0072,0,0,0,0,0,-0.016,-0.0172,-0.0166,-0.0164,-0.0139,-0.012,-0.0115,-0.0088,-0.0078,-0.0077,-0.0044,-0.0021,0.0047,0.0044,0.0053,0.0054,0.0127,0.0128,0.0128,0.0079,0.0075,0.0072,0,0,0,0,0,0,-0.0183,-0.0168,-0.016,-0.0166,-0.0148,-0.0114,-0.0112,-0.0094,-0.0068,-0.0065,-0.0022,-0.0011,0.0012,0.004,0.0035,0.0075,0.0092,0.0093,0.0052,0.0048,0.0045,0.0034,0.0067,0,0,0,0,0,-0.0193,-0.0199,-0.0176,-0.0182,-0.0175,-0.0146,-0.0136,-0.0119,-0.0092,-0.008,-0.0047,-0.0011,0.0019,0.0038,0.0068,0.0089,0.0119,0.0097,0.0093,0.009,0.0088,0.0132,0.0133,0.0128,0.0128,0.0128,0,0,-0.0204,-0.0197,-0.02,-0.0187,-0.0171,-0.0168,-0.0139,-0.0129,-0.0123,-0.0075,-0.0057,-0.0024,0.0022,0.0046,0.0059,0.0069,0.0107,0.0091,0.0088,0.0087,0.0133,0.0133,0.0134,0.0128,0.0128,0.0128,0,0,-0.0228,-0.0222,-0.0235,-0.0224,-0.0208,-0.0189,-0.019,-0.0159,-0.0143,-0.0123,-0.0086,-0.0054,-0.001,0.0026,0.0049,0.0047,0.0086,0.0055,0.0035,0.0077,0.0078,0.0079,0.0112,0.0117,0.0057,0.0057,0.0057,0,-0.0242,-0.0255,-0.0234,-0.0241,-0.0238,-0.0202,-0.0212,-0.0188,-0.0152,-0.0139,-0.0126,-0.0054,-0.0018,0.0021,0.0021,0.004,0.0066,0.0043,0.0073,0.0074,0.0076,0.011,0.0116,0.0055,0.0055,0.0055,0.0056,0,-0.0271,-0.0282,-0.0288,-0.0288,-0.0279,-0.0282,-0.0251,-0.0237,-0.0214,-0.0187,-0.0149,-0.0095,-0.0053,-0.0034,-0.0007,0.0026,0.0041,0.0059,0.0079,0.0074,0.011,0.0116,0.0051,0.0052,0.0053,0.0053,0,0,-0.0301,-0.0309,-0.0313,-0.0325,-0.0306,-0.0305,-0.0293,-0.0271,-0.0265,-0.0219,-0.02,-0.014,-0.0109,-0.008,-0.0036,0.0006,0.0042,0.0034,0.0037,0.006,0.0129,0.0122,0.0129,0.0065,0.0066,0.0066,0.0147,0,-0.0331,-0.0365,-0.0355,-0.0381,-0.0394,-0.0362,-0.0355,-0.0328,-0.0296,-0.0267,-0.0199,-0.0166,-0.0126,-0.0107,-0.0059,0.0016,0.0058,0.0018,0.0137,0.014,0.013,0.0136,0.007,0.0152,0.0153,0.0155,0.0155,0,-0.0361,-0.0382,-0.042,-0.0434,-0.0436,-0.0444,-0.0431,-0.0419,-0.0363,-0.0336,-0.0284,-0.023,-0.0161,-0.0127,-0.0003,-0.0032,0.004,0.0102,0.0107,0.0123,0.0145,0.0162,0.0168,0.0167,0.0166,0.0165,0.0164,0,-0.0396,-0.0426,-0.0462,-0.0467,-0.0474,-0.0484,-0.0482,-0.0444,-0.0437,-0.0378,-0.0363,-0.0271,-0.0228,-0.0124,0.0001,-0.0001,0.014,0.0155,0.0219,0.0219,0.0224,0.0222,0.0243,0.0243,0.0242,0.0242,0.0242,0,-0.0428,-0.0458,-0.0488,-0.0508,-0.055,-0.0533,-0.0557,-0.0535,-0.0503,-0.0492,-0.0406,-0.0373,-0.0225,-0.0124,-0.0011,0.0121,0.0132,0.0215,0.0241,0.02,0.0194,0.0228,0.0226,0.0245,0.0245,0.0244,0.0243,0,-0.0454,-0.0474,-0.0522,-0.0555,-0.057,-0.0599,-0.0621,-0.0629,-0.0591,-0.0572,-0.0556,-0.0448,-0.0315,-0.0161,0.0015,0.0097,0.0231,0.0278,0.0217,0.0238,0.0283,0.0277,0.0349,0.035,0.035,0.035,0.0351,0,-0.0469,-0.0498,-0.0566,-0.0605,-0.0627,-0.0668,-0.0693,-0.0676,-0.0679,-0.0614,-0.0605,-0.0482,-0.039,-0.0149,0.0007,0.0223,0.0255,0.0315,0.0304,0.0278,0.0296,0.0289,0.0282,0.0351,0.0351,0.0351,0.0352,0,-0.0495,-0.0525,-0.0567,-0.0652,-0.0702,-0.0749,-0.078,-0.0789,-0.0752,-0.0725,-0.0632,-0.0496,-0.0345,-0.0155,0.0015,0.0169,0.0269,0.0319,0.032,0.031,0.0281,0.0297,0.029,0.0353,0.0353,0.0353,0.0352,0,-0.0512,-0.0553,-0.0616,-0.0686,-0.0756,-0.0803,-0.0818,-0.0807,-0.0798,-0.0716,-0.0689,-0.051,-0.0406,-0.0183,-0.0027,0.0125,0.016,0.0199,0.0206,0.0206,0.0141,0.0082,0.0114,0,0,0,0,0,-0.0521,-0.057,-0.0644,-0.0719,-0.079,-0.0826,-0.0861,-0.086,-0.0831,-0.077,-0.0723,-0.0574,-0.0329,-0.0227,-0.0075,-0.003,0.0175,0.0149,0.022,0.036,0.0359,0.0306,0,0,0,0,0,0,-0.0528,-0.0599,-0.0641,-0.073,-0.0784,-0.0851,-0.0874,-0.0857,-0.0814,-0.0764,-0.0634,-0.0549,-0.0314,-0.0411,-0.0075,-0.0029,0.0032,0.0269,0.0272,0.0361,0.036,0.0358,0.0304,0,0,0,0,0]}]]